Погода в Ключах

Россия / Омская область     55°09′06″N   73°13′03″E
темп.,
°C
ветер,
м/с
пор.,
м/с
влажн.,
%
обл.,
%
осадки,
мм/ч
давл.,
гПа
погр.,
м
8 мая, сб
сб800:00+11зсз33535 0.0 102023
03:00+10з33572 0.0 102122
06:00+9з22595 0.0 102114
09:00+15зюз33445 0.0 1021275
12:00+20зюз44324 0.0 10201253
15:00+22з33275 0.0 10191771
18:00+22сз11265 0.0 10181741
21:00+17вюв22375 0.0 101711
9 мая, вс
вс900:00+16в334089 0.0 101719
03:00+13в3447100 0.0 101648
06:00+12всв4961100 0.0 1017133
09:00+14всв61161100 0.0 1017356
12:00+19в784192 0.0 10171048
15:00+20всв8839100 0.0 10161433
18:00+18всв7941100 0.0 10171309
21:00+14всв71345100 0.0 1018617
10 мая, пн
пн1000:00+12всв71443100 0.0 1019677
03:00+10в71449100 0.0 1020657
06:00+8всв71456100 0.0 1021587
09:00+10в81248100 0.0 1022832
12:00+14всв81036100 0.0 10221399
15:00+16всв783294 0.0 10221797
18:00+16всв68345 0.0 10221706
21:00+12св33482 0.0 102337
11 мая, вт
вт1100:00+9св38585 0.0 1023121
03:00+8св33600 0.0 102435
06:00+7ссв35660 0.0 102589
09:00+11ссв56540 0.0 1025620
12:00+15ссв45410 0.0 10251294
15:00+17ссв45333 0.0 10241491
18:00+17с4430100 0.0 10231452
21:00+14с2242100 0.0 102410
12 мая, ср
ср1200:00+13зюз1242100 0.0 102310
03:00+12зюз3346100 0.0 102237
06:00+11зюз3552100 0.0 1021105
09:00+15сз3647100 0.0 1020419
12:00+14ссз5557100 0.1 1020715
15:00+14ссз7770100 1.6 1019928
18:00+12с787452 2.6 1021903
21:00+9ссз6985100 0.1 1022522